| time (UTC) | temp C | wind direction | speed KPH | gust KPH | rain 1hr cm | rain 24hr cm | rain mn cm | humidity % | barometer mb |
| 20260904144221 | 23 | 263 | 4.8 | 9.7 | 361.92 | 0.00 | 0.00 | 75 | 1010.8 |
| 20260904143721 | 22 | 150 | 4.8 | 3.2 | 361.92 | 0.00 | 0.00 | 81 | 1010.8 |
| 20260904143221 | 22 | 246 | 1.6 | 3.2 | 361.92 | 0.00 | 0.00 | 85 | 1010.9 |
| 20260904142721 | 22 | 253 | 1.6 | 4.8 | 361.92 | 0.00 | 0.00 | 86 | 1010.9 |
| 20260904142221 | 21 | 0 | 0.0 | 0.0 | 361.92 | 0.00 | 0.00 | 86 | 1011.0 |
| 20260904141721 | 21 | 283 | 0.0 | 4.8 | 361.92 | 0.00 | 0.00 | 87 | 1011.0 |
| 20260904141221 | 21 | 277 | 3.2 | 8.0 | 361.92 | 0.00 | 0.00 | 89 | 1011.1 |
| 20260904140721 | 21 | 283 | 6.4 | 8.0 | 361.92 | 0.00 | 0.00 | 91 | 1011.1 |
| 20260904140221 | 20 | 281 | 4.8 | 8.0 | 361.92 | 0.00 | 0.00 | 93 | 1011.1 |
| 20260904135721 | 20 | 256 | 0.0 | 4.8 | 361.92 | 0.00 | 0.00 | 96 | 1011.1 |
| 20260904135221 | 20 | 287 | 3.2 | 8.0 | 361.92 | 0.00 | 0.00 | 97 | 1011.2 |
| 20260904134722 | 20 | 280 | 4.8 | 8.0 | 361.92 | 0.00 | 0.00 | 97 | 1011.1 |
| 20260904134220 | 20 | 287 | 4.8 | 8.0 | 361.92 | 0.00 | 0.00 | 98 | 1011.0 |
| 20260904133221 | 20 | 0 | 0.0 | 0.0 | 361.92 | 0.00 | 0.00 | 99 | 1011.1 |
| 20260904132721 | 19 | 0 | 0.0 | 0.0 | 361.92 | 0.00 | 0.00 | 99 | 1011.1 |
| 20260904132220 | 19 | 0 | 0.0 | 0.0 | 361.92 | 0.00 | 0.00 | 99 | 1011.2 |
| 20260904131721 | 19 | 0 | 0.0 | 0.0 | 361.92 | 0.00 | 0.00 | 98 | 1011.3 |
| 20260904130222 | 18 | 0 | 0.0 | 0.0 | 361.92 | 0.00 | 0.00 | 99 | 1011.3 |
| 20260904125720 | 18 | 173 | 0.0 | 1.6 | 361.92 | 0.00 | 0.00 | 99 | 1011.3 |
| 20260904125222 | 18 | 0 | 1.6 | 0.0 | 361.92 | 0.00 | 0.00 | 99 | 1011.3 |
| 20260904124722 | 18 | 0 | 0.0 | 0.0 | 361.92 | 0.00 | 0.00 | 98 | 1011.3 |
| 20260904124220 | 18 | 0 | 0.0 | 0.0 | 361.92 | 0.00 | 0.00 | 99 | 1011.2 |
| 20260904123721 | 18 | 0 | 0.0 | 0.0 | 361.92 | 0.00 | 0.00 | 99 | 1011.2 |
| 20260904123221 | 18 | 0 | 0.0 | 0.0 | 361.92 | 0.00 | 0.00 | 99 | 1011.2 |
| 20260904122721 | 18 | 0 | 0.0 | 0.0 | 361.92 | 0.00 | 0.00 | 99 | 1011.1 |
| 20260904122223 | 18 | 0 | 0.0 | 0.0 | 361.92 | 0.00 | 0.00 | 99 | 1011.2 |
| 20260904121721 | 17 | 0 | 0.0 | 0.0 | 361.92 | 0.00 | 0.00 | 99 | 1011.2 |
| 20260904120721 | 17 | 0 | 0.0 | 0.0 | 361.92 | 0.00 | 0.00 | 98 | 1011.2 |
| 20260904120221 | 17 | 0 | 0.0 | 0.0 | 361.92 | 0.00 | 0.00 | 99 | 1011.1 |
| 20260904115721 | 17 | 0 | 0.0 | 0.0 | 361.92 | 0.00 | 0.00 | 99 | 1011.1 |
| 20260904115221 | 17 | 0 | 0.0 | 0.0 | 361.92 | 0.00 | 0.00 | 99 | 1011.1 |
| 20260904114722 | 17 | 0 | 0.0 | 0.0 | 361.92 | 0.00 | 0.00 | 98 | 1011.0 |
| 20260904114220 | 17 | 0 | 0.0 | 0.0 | 361.92 | 0.00 | 0.00 | 98 | 1011.0 |
| 20260904113720 | 17 | 0 | 0.0 | 0.0 | 361.92 | 0.00 | 0.00 | 98 | 1011.0 |
| 20260904113221 | 17 | 0 | 0.0 | 0.0 | 361.92 | 0.00 | 0.00 | 98 | 1011.1 |
| 20260904112720 | 17 | 0 | 0.0 | 0.0 | 361.92 | 0.00 | 0.00 | 98 | 1011.0 |
| 20260904110724 | 17 | 0 | 0.0 | 0.0 | 361.92 | 0.00 | 0.00 | 98 | 1011.0 |
| 20260904110221 | 17 | 0 | 0.0 | 0.0 | 361.92 | 0.00 | 0.00 | 98 | 1011.0 |
| 20260904105720 | 17 | 0 | 0.0 | 0.0 | 361.92 | 0.00 | 0.00 | 98 | 1011.0 |
| 20260904105221 | 17 | 0 | 0.0 | 0.0 | 361.92 | 0.00 | 0.00 | 98 | 1010.9 |
| 20260904104724 | 17 | 0 | 0.0 | 0.0 | 361.92 | 0.00 | 0.00 | 98 | 1011.0 |
| 20260904104221 | 17 | 0 | 0.0 | 0.0 | 361.92 | 0.00 | 0.00 | 98 | 1010.9 |
| 20260904103720 | 17 | 0 | 0.0 | 0.0 | 361.92 | 0.00 | 0.00 | 98 | 1010.8 |
| 20260904103221 | 17 | 0 | 0.0 | 0.0 | 361.92 | 0.00 | 0.00 | 98 | 1010.6 |
| 20260904102726 | 17 | 0 | 0.0 | 0.0 | 361.92 | 0.00 | 0.00 | 98 | 1010.7 |
| 20260904102220 | 17 | 0 | 0.0 | 0.0 | 361.92 | 0.00 | 0.00 | 97 | 1010.6 |
| 20260904101721 | 17 | 0 | 0.0 | 0.0 | 361.92 | 0.00 | 0.00 | 98 | 1010.7 |
| 20260904100723 | 17 | 0 | 0.0 | 0.0 | 361.92 | 0.00 | 0.00 | 98 | 1010.6 |
| 20260904100222 | 17 | 0 | 0.0 | 0.0 | 361.92 | 0.00 | 0.00 | 98 | 1010.4 |
| 20260904095220 | 17 | 0 | 0.0 | 0.0 | 361.92 | 0.00 | 0.00 | 98 | 1010.4 |
| 20260904094721 | 17 | 0 | 0.0 | 0.0 | 361.92 | 0.00 | 0.00 | 98 | 1010.4 |
| 20260904094220 | 18 | 0 | 0.0 | 0.0 | 361.92 | 0.00 | 0.00 | 98 | 1010.5 |
| 20260904093724 | 18 | 0 | 0.0 | 0.0 | 361.92 | 0.00 | 0.00 | 98 | 1010.5 |
| 20260904093222 | 18 | 0 | 0.0 | 0.0 | 361.92 | 0.00 | 0.00 | 98 | 1010.4 |
| 20260904092720 | 18 | 0 | 0.0 | 0.0 | 361.92 | 0.00 | 0.00 | 97 | 1010.5 |
| 20260904092220 | 18 | 0 | 0.0 | 0.0 | 361.92 | 0.00 | 0.00 | 98 | 1010.5 |
| 20260904091721 | 18 | 0 | 0.0 | 0.0 | 361.92 | 0.00 | 0.00 | 98 | 1010.5 |
| 20260904091221 | 18 | 0 | 0.0 | 0.0 | 361.92 | 0.00 | 0.00 | 98 | 1010.6 |
| 20260904090223 | 18 | 291 | 0.0 | 1.6 | 361.92 | 0.00 | 0.00 | 98 | 1010.5 |
| 20260904085720 | 18 | 0 | 0.0 | 0.0 | 361.92 | 0.00 | 0.00 | 98 | 1010.5 |
| 20260904085220 | 18 | 0 | 0.0 | 0.0 | 361.92 | 0.00 | 0.00 | 98 | 1010.5 |
| 20260904084721 | 18 | 0 | 0.0 | 0.0 | 361.92 | 0.00 | 0.00 | 97 | 1010.5 |
| 20260904084220 | 18 | 0 | 0.0 | 0.0 | 361.92 | 0.00 | 0.00 | 97 | 1010.5 |
| 20260904083221 | 18 | 0 | 0.0 | 0.0 | 361.92 | 0.00 | 0.00 | 98 | 1010.5 |
| 20260904082721 | 18 | 0 | 0.0 | 0.0 | 361.92 | 0.00 | 0.00 | 98 | 1010.5 |
| 20260904082220 | 18 | 0 | 0.0 | 0.0 | 361.92 | 0.00 | 0.00 | 98 | 1010.7 |
| 20260904081721 | 18 | 0 | 0.0 | 0.0 | 361.92 | 0.00 | 0.00 | 98 | 1010.6 |
| 20260904081221 | 18 | 0 | 0.0 | 0.0 | 361.92 | 0.00 | 0.00 | 98 | 1010.6 |
| 20260904080724 | 18 | 0 | 0.0 | 0.0 | 361.92 | 0.00 | 0.00 | 98 | 1010.7 |
| 20260904080223 | 18 | 0 | 0.0 | 0.0 | 361.92 | 0.00 | 0.00 | 98 | 1010.8 |
| 20260904075721 | 18 | 0 | 0.0 | 0.0 | 361.92 | 0.00 | 0.00 | 98 | 1010.9 |
| 20260904074721 | 18 | 0 | 0.0 | 0.0 | 361.92 | 0.00 | 0.00 | 98 | 1010.9 |
| 20260904074220 | 18 | 0 | 0.0 | 0.0 | 361.92 | 0.00 | 0.00 | 98 | 1010.9 |
| 20260904073221 | 18 | 0 | 0.0 | 0.0 | 361.92 | 0.00 | 0.00 | 98 | 1010.8 |
| 20260904072721 | 18 | 0 | 0.0 | 0.0 | 361.92 | 0.00 | 0.00 | 98 | 1010.8 |
| 20260904071721 | 18 | 0 | 0.0 | 0.0 | 361.92 | 0.00 | 0.00 | 98 | 1010.8 |
| 20260904071220 | 18 | 0 | 0.0 | 0.0 | 361.92 | 0.00 | 0.00 | 98 | 1010.9 |
| 20260904070720 | 18 | 0 | 0.0 | 0.0 | 361.92 | 0.00 | 0.00 | 97 | 1010.8 |
| 20260904070222 | 18 | 0 | 0.0 | 0.0 | 361.92 | 0.00 | 0.00 | 97 | 1010.8 |
| 20260904065220 | 19 | 0 | 0.0 | 0.0 | 361.92 | 0.00 | 0.00 | 97 | 1010.9 |
| 20260904064721 | 19 | 0 | 0.0 | 0.0 | 361.92 | 0.00 | 0.00 | 97 | 1010.9 |
| 20260904064223 | 19 | 0 | 0.0 | 0.0 | 361.92 | 0.00 | 0.00 | 98 | 1010.9 |
| 20260904063220 | 19 | 0 | 0.0 | 0.0 | 361.92 | 0.00 | 0.00 | 98 | 1011.0 |
| 20260904062720 | 19 | 0 | 0.0 | 0.0 | 361.92 | 0.00 | 0.00 | 98 | 1011.1 |
| 20260904062220 | 19 | 0 | 0.0 | 0.0 | 361.92 | 0.00 | 0.00 | 98 | 1011.2 |
| 20260904061723 | 19 | 0 | 0.0 | 0.0 | 361.92 | 0.00 | 0.00 | 98 | 1011.1 |
| 20260904061220 | 19 | 0 | 0.0 | 0.0 | 361.92 | 0.00 | 0.00 | 98 | 1011.2 |
| 20260904060720 | 19 | 0 | 0.0 | 0.0 | 361.92 | 0.00 | 0.00 | 97 | 1011.2 |
| 20260904060220 | 19 | 0 | 0.0 | 0.0 | 361.92 | 0.00 | 0.00 | 97 | 1011.3 |
| 20260904055721 | 19 | 0 | 0.0 | 0.0 | 361.92 | 0.00 | 0.00 | 97 | 1011.4 |
| 20260904055220 | 19 | 0 | 0.0 | 0.0 | 361.92 | 0.00 | 0.00 | 97 | 1011.5 |
| 20260904054720 | 19 | 0 | 0.0 | 0.0 | 361.92 | 0.00 | 0.00 | 97 | 1011.7 |
| 20260904053223 | 19 | 0 | 0.0 | 0.0 | 361.92 | 0.00 | 0.00 | 97 | 1012.0 |
| 20260904052720 | 19 | 0 | 0.0 | 0.0 | 361.92 | 0.00 | 0.00 | 97 | 1011.9 |
| 20260904052220 | 19 | 0 | 0.0 | 0.0 | 361.92 | 0.00 | 0.00 | 97 | 1012.0 |
| 20260904051733 | 19 | 0 | 0.0 | 0.0 | 361.92 | 0.00 | 0.00 | 97 | 1011.9 |
| 20260904051220 | 19 | 0 | 0.0 | 0.0 | 361.92 | 0.00 | 0.00 | 97 | 1012.1 |
| 20260904050720 | 18 | 0 | 0.0 | 0.0 | 361.92 | 0.00 | 0.00 | 97 | 1012.0 |
| 20260904050220 | 18 | 0 | 0.0 | 0.0 | 361.92 | 0.00 | 0.00 | 97 | 1012.0 |
| 20260904044720 | 18 | 0 | 0.0 | 0.0 | 361.92 | 0.00 | 0.00 | 97 | 1011.9 |
| 20260904043720 | 18 | 0 | 0.0 | 0.0 | 361.92 | 0.00 | 0.00 | 97 | 1012.0 |
| 20260904043220 | 18 | 0 | 0.0 | 0.0 | 361.92 | 0.00 | 0.00 | 97 | 1012.1 |
| 20260904042721 | 18 | 0 | 0.0 | 0.0 | 361.92 | 0.00 | 0.00 | 97 | 1012.0 |
| 20260904042220 | 18 | 0 | 0.0 | 0.0 | 361.92 | 0.00 | 0.00 | 97 | 1012.1 |
| 20260904041721 | 18 | 0 | 0.0 | 0.0 | 361.92 | 0.00 | 0.00 | 97 | 1012.1 |
| 20260904041221 | 18 | 0 | 0.0 | 0.0 | 361.92 | 0.00 | 0.00 | 97 | 1012.1 |
| 20260904040220 | 18 | 0 | 0.0 | 0.0 | 361.92 | 0.00 | 0.00 | 97 | 1012.1 |
| 20260904035720 | 18 | 0 | 0.0 | 0.0 | 361.92 | 0.00 | 0.00 | 97 | 1012.2 |
| 20260904035220 | 18 | 0 | 0.0 | 0.0 | 361.92 | 0.00 | 0.30 | 97 | 1012.3 |
| 20260904034720 | 18 | 0 | 0.0 | 0.0 | 361.92 | 0.00 | 0.30 | 97 | 1012.2 |
| 20260904034220 | 19 | 0 | 0.0 | 0.0 | 361.92 | 0.00 | 0.30 | 97 | 1012.2 |
| 20260904033720 | 18 | 0 | 0.0 | 0.0 | 361.92 | 0.00 | 0.30 | 96 | 1012.2 |
| 20260904033220 | 18 | 0 | 0.0 | 0.0 | 361.92 | 0.00 | 0.30 | 97 | 1012.3 |
| 20260904032720 | 18 | 0 | 0.0 | 0.0 | 361.92 | 0.00 | 0.30 | 97 | 1012.3 |
| 20260904032220 | 18 | 0 | 0.0 | 0.0 | 361.92 | 0.00 | 0.30 | 96 | 1012.3 |
| 20260904031720 | 18 | 0 | 0.0 | 0.0 | 361.92 | 0.00 | 0.30 | 96 | 1012.3 |
| 20260904031220 | 18 | 0 | 0.0 | 0.0 | 361.92 | 0.00 | 0.30 | 96 | 1012.4 |
| 20260904030220 | 19 | 0 | 0.0 | 0.0 | 361.92 | 0.00 | 0.30 | 96 | 1012.3 |
| 20260904025720 | 19 | 0 | 0.0 | 0.0 | 361.92 | 0.00 | 0.30 | 96 | 1012.3 |
| 20260904025219 | 19 | 0 | 0.0 | 0.0 | 361.92 | 0.00 | 0.30 | 96 | 1012.3 |
| 20260904024720 | 19 | 0 | 0.0 | 0.0 | 361.92 | 0.00 | 0.30 | 96 | 1012.3 |
| 20260904024219 | 19 | 0 | 0.0 | 0.0 | 361.92 | 0.00 | 0.30 | 96 | 1012.2 |
| 20260904023719 | 19 | 0 | 0.0 | 0.0 | 361.92 | 0.00 | 0.30 | 96 | 1012.3 |
| 20260904023224 | 19 | 0 | 0.0 | 0.0 | 361.92 | 0.00 | 0.30 | 97 | 1012.4 |
| 20260904022719 | 19 | 0 | 0.0 | 0.0 | 361.92 | 0.00 | 0.30 | 96 | 1012.5 |
| 20260904022219 | 19 | 0 | 0.0 | 0.0 | 361.92 | 0.00 | 0.30 | 96 | 1012.5 |
| 20260904021720 | 20 | 0 | 0.0 | 0.0 | 361.92 | 0.00 | 0.30 | 96 | 1012.5 |
| 20260904021219 | 20 | 0 | 0.0 | 0.0 | 361.92 | 0.00 | 0.30 | 96 | 1012.5 |
| 20260904020720 | 20 | 0 | 0.0 | 0.0 | 361.92 | 0.00 | 0.30 | 96 | 1012.6 |
| 20260904020220 | 20 | 0 | 0.0 | 0.0 | 361.92 | 0.00 | 0.30 | 96 | 1012.7 |
| 20260904015219 | 20 | 0 | 0.0 | 0.0 | 361.92 | 0.00 | 0.30 | 96 | 1012.7 |
| 20260904014720 | 20 | 0 | 0.0 | 0.0 | 361.92 | 0.00 | 0.30 | 96 | 1012.8 |
| 20260904014220 | 20 | 0 | 0.0 | 0.0 | 361.92 | 0.00 | 0.30 | 95 | 1012.9 |
| 20260904013719 | 20 | 0 | 0.0 | 0.0 | 361.92 | 0.00 | 0.30 | 95 | 1012.8 |
| 20260904013220 | 20 | 0 | 0.0 | 0.0 | 361.92 | 0.00 | 0.30 | 95 | 1012.8 |
| 20260904012719 | 20 | 0 | 0.0 | 0.0 | 361.92 | 0.00 | 0.30 | 95 | 1012.9 |
| 20260904012219 | 20 | 0 | 0.0 | 0.0 | 361.92 | 0.00 | 0.30 | 95 | 1012.8 |
| 20260904010719 | 20 | 0 | 0.0 | 0.0 | 361.92 | 0.00 | 0.30 | 95 | 1012.8 |
| 20260904010226 | 20 | 0 | 0.0 | 0.0 | 361.92 | 0.00 | 0.30 | 95 | 1012.9 |
| 20260904005719 | 20 | 0 | 0.0 | 0.0 | 361.92 | 0.00 | 0.30 | 95 | 1012.9 |
| 20260904005219 | 20 | 0 | 0.0 | 0.0 | 361.92 | 0.00 | 0.30 | 94 | 1012.9 |
| 20260904004720 | 20 | 0 | 0.0 | 0.0 | 361.92 | 0.00 | 0.30 | 94 | 1012.8 |
| 20260904004220 | 20 | 0 | 0.0 | 0.0 | 361.92 | 0.00 | 0.30 | 92 | 1012.8 |
| 20260904003719 | 21 | 0 | 0.0 | 0.0 | 361.92 | 0.00 | 0.30 | 91 | 1012.7 |
| 20260904003220 | 21 | 0 | 0.0 | 0.0 | 361.92 | 0.00 | 0.30 | 92 | 1012.6 |
| 20260904002219 | 21 | 0 | 0.0 | 0.0 | 361.92 | 0.00 | 0.30 | 90 | 1012.4 |
| 20260904001720 | 21 | 0 | 0.0 | 0.0 | 361.92 | 0.00 | 0.30 | 90 | 1012.3 |
| 20260904001219 | 21 | 0 | 0.0 | 0.0 | 361.92 | 0.00 | 0.30 | 90 | 1012.3 |
| 20260904000220 | 21 | 0 | 0.0 | 0.0 | 361.92 | 0.00 | 0.30 | 89 | 1012.0 |
| 20260903235719 | 21 | 0 | 0.0 | 0.0 | 361.92 | 0.00 | 0.30 | 89 | 1011.9 |
| 20260903234720 | 21 | 0 | 0.0 | 0.0 | 361.92 | 0.00 | 0.30 | 88 | 1012.3 |
| 20260903234219 | 21 | 0 | 0.0 | 0.0 | 361.92 | 0.00 | 0.30 | 88 | 1012.3 |
| 20260903233720 | 21 | 0 | 0.0 | 0.0 | 361.92 | 0.00 | 0.30 | 87 | 1012.1 |
| 20260903233222 | 21 | 0 | 0.0 | 0.0 | 361.92 | 0.00 | 0.30 | 87 | 1012.1 |
| 20260903232719 | 22 | 0 | 0.0 | 0.0 | 361.92 | 0.00 | 0.30 | 86 | 1011.9 |
| 20260903231720 | 22 | 0 | 0.0 | 0.0 | 361.92 | 0.00 | 0.30 | 85 | 1012.1 |
| 20260903230719 | 22 | 0 | 0.0 | 0.0 | 361.92 | 0.00 | 0.30 | 84 | 1012.2 |
| 20260903230220 | 22 | 0 | 0.0 | 0.0 | 361.92 | 0.00 | 0.30 | 83 | 1012.3 |
| 20260903225719 | 22 | 0 | 0.0 | 0.0 | 361.92 | 0.00 | 0.30 | 82 | 1012.3 |
| 20260903225219 | 23 | 0 | 0.0 | 0.0 | 361.92 | 0.00 | 0.30 | 82 | 1012.2 |
| 20260903224753 | 23 | 0 | 0.0 | 0.0 | 361.92 | 0.00 | 0.30 | 81 | 1012.2 |
| 20260903224720 | 23 | 0 | 0.0 | 0.0 | 361.92 | 0.00 | 0.30 | 81 | 1012.2 |
| 20260903224219 | 23 | 0 | 0.0 | 0.0 | 361.92 | 0.00 | 0.30 | 80 | 1012.1 |
| 20260903223220 | 23 | 0 | 0.0 | 0.0 | 361.92 | 0.00 | 0.30 | 78 | 1012.1 |
| 20260903222719 | 24 | 0 | 0.0 | 0.0 | 361.92 | 0.00 | 0.30 | 77 | 1012.2 |
| 20260903221720 | 25 | 0 | 0.0 | 0.0 | 361.92 | 0.00 | 0.30 | 74 | 1012.4 |
| 20260903220719 | 25 | 0 | 0.0 | 0.0 | 361.92 | 0.00 | 0.30 | 73 | 1012.7 |
| 20260903220220 | 25 | 0 | 0.0 | 0.0 | 361.92 | 0.00 | 0.30 | 73 | 1012.7 |
| 20260903215219 | 26 | 0 | 0.0 | 0.0 | 361.92 | 0.00 | 0.30 | 72 | 1012.5 |
| 20260903214720 | 25 | 0 | 0.0 | 0.0 | 361.92 | 0.00 | 0.30 | 72 | 1012.6 |
| 20260903214219 | 25 | 0 | 0.0 | 0.0 | 361.92 | 0.00 | 0.30 | 74 | 1012.6 |
| 20260903213719 | 25 | 0 | 0.0 | 0.0 | 361.92 | 0.00 | 0.30 | 75 | 1012.6 |
| 20260903213220 | 25 | 0 | 0.0 | 0.0 | 361.92 | 0.00 | 0.30 | 76 | 1012.5 |
| 20260903212719 | 24 | 0 | 0.0 | 0.0 | 361.92 | 0.00 | 0.30 | 76 | 1012.5 |
| 20260903212219 | 24 | 0 | 0.0 | 0.0 | 361.92 | 0.00 | 0.30 | 77 | 1012.5 |
| 20260903211720 | 24 | 0 | 0.0 | 0.0 | 361.92 | 0.00 | 0.30 | 76 | 1012.5 |
| 20260903211219 | 24 | 0 | 0.0 | 0.0 | 361.92 | 0.00 | 0.30 | 76 | 1012.6 |
| 20260903210719 | 24 | 0 | 0.0 | 0.0 | 361.92 | 0.00 | 0.30 | 76 | 1012.7 |
| 20260903210220 | 24 | 0 | 0.0 | 0.0 | 361.92 | 0.00 | 0.30 | 75 | 1012.7 |
| 20260903205719 | 24 | 63 | 0.0 | 0.0 | 361.92 | 0.00 | 0.30 | 75 | 1012.6 |
| 20260903204721 | 24 | 0 | 0.0 | 0.0 | 361.92 | 0.00 | 0.30 | 75 | 1012.5 |
| 20260903204219 | 25 | 0 | 0.0 | 0.0 | 361.92 | 0.00 | 0.30 | 76 | 1012.6 |
| 20260903203719 | 25 | 0 | 0.0 | 0.0 | 361.92 | 0.00 | 0.30 | 75 | 1012.6 |
| 20260903203219 | 24 | 0 | 0.0 | 0.0 | 361.92 | 0.00 | 0.30 | 75 | 1012.7 |
| 20260903202719 | 25 | 0 | 0.0 | 0.0 | 361.92 | 0.00 | 0.30 | 75 | 1012.7 |
| 20260903201719 | 24 | 0 | 0.0 | 0.0 | 361.92 | 0.00 | 0.30 | 76 | 1012.7 |
| 20260903201219 | 23 | 0 | 0.0 | 0.0 | 361.92 | 0.00 | 0.30 | 77 | 1012.7 |
| 20260903200719 | 23 | 0 | 0.0 | 0.0 | 361.92 | 0.00 | 0.30 | 76 | 1012.7 |
| 20260903200222 | 23 | 0 | 0.0 | 0.0 | 361.92 | 0.00 | 0.30 | 75 | 1012.9 |
| 20260903195719 | 23 | 0 | 0.0 | 0.0 | 361.92 | 0.00 | 0.30 | 75 | 1012.9 |
| 20260903195219 | 23 | 0 | 0.0 | 0.0 | 361.92 | 0.00 | 0.30 | 75 | 1012.9 |
| 20260903194719 | 23 | 0 | 0.0 | 0.0 | 361.92 | 0.00 | 0.30 | 74 | 1013.0 |
| 20260903194219 | 23 | 62 | 0.0 | 3.2 | 361.92 | 0.00 | 0.30 | 75 | 1013.1 |
| 20260903193219 | 23 | 210 | 0.0 | 0.0 | 361.92 | 0.00 | 0.30 | 76 | 1013.2 |
| 20260903192719 | 23 | 231 | 0.0 | 1.6 | 361.92 | 0.00 | 0.30 | 75 | 1013.4 |
| 20260903191722 | 24 | 4 | 0.0 | 3.2 | 361.92 | 0.00 | 0.30 | 73 | 1013.4 |
| 20260903191219 | 24 | 34 | 0.0 | 3.2 | 361.92 | 0.00 | 0.30 | 72 | 1013.5 |
| 20260903190719 | 24 | 113 | 0.0 | 6.4 | 361.92 | 0.00 | 0.30 | 73 | 1013.4 |
| 20260903190219 | 23 | 32 | 3.2 | 3.2 | 361.92 | 0.00 | 0.30 | 75 | 1013.4 |
| 20260903184721 | 23 | 63 | 0.0 | 3.2 | 361.92 | 0.00 | 0.30 | 75 | 1013.5 |
| 20260903183719 | 23 | 98 | 0.0 | 1.6 | 361.92 | 0.00 | 0.30 | 75 | 1013.7 |
| 20260903183219 | 23 | 98 | 0.0 | 3.2 | 361.92 | 0.00 | 0.30 | 78 | 1013.7 |
| 20260903182719 | 23 | 48 | 0.0 | 4.8 | 361.92 | 0.00 | 0.30 | 78 | 1013.8 |
| 20260903181720 | 22 | 0 | 0.0 | 0.0 | 361.92 | 0.00 | 0.30 | 79 | 1013.7 |
| 20260903180719 | 22 | 148 | 3.2 | 4.8 | 361.92 | 0.00 | 0.30 | 79 | 1013.9 |
| 20260903180220 | 22 | 122 | 1.6 | 6.4 | 361.92 | 0.00 | 0.30 | 80 | 1014.0 |
| 20260903175734 | 22 | 110 | 3.2 | 3.2 | 361.92 | 0.00 | 0.30 | 83 | 1014.0 |
| 20260903175219 | 22 | 76 | 0.0 | 1.6 | 361.92 | 0.00 | 0.30 | 83 | 1013.9 |
| 20260903174719 | 21 | 0 | 0.0 | 0.0 | 361.92 | 0.00 | 0.30 | 83 | 1014.1 |
| 20260903173719 | 21 | 103 | 0.0 | 1.6 | 361.92 | 0.00 | 0.30 | 83 | 1014.3 |
| 20260903173219 | 21 | 0 | 0.0 | 0.0 | 361.92 | 0.00 | 0.30 | 83 | 1014.3 |
| 20260903172719 | 21 | 114 | 0.0 | 4.8 | 361.92 | 0.00 | 0.30 | 83 | 1014.3 |
| 20260903171719 | 21 | 32 | 1.6 | 1.6 | 361.92 | 0.00 | 0.30 | 84 | 1014.4 |
| 20260903170219 | 21 | 98 | 1.6 | 4.8 | 361.92 | 0.00 | 0.30 | 84 | 1014.3 |
| 20260903165719 | 21 | 132 | 0.0 | 1.6 | 361.92 | 0.00 | 0.30 | 84 | 1014.1 |
| 20260903164721 | 21 | 0 | 0.0 | 0.0 | 361.92 | 0.00 | 0.30 | 86 | 1014.1 |
| 20260903163719 | 21 | 134 | 0.0 | 1.6 | 361.92 | 0.00 | 0.30 | 87 | 1014.2 |
| 20260903163224 | 21 | 30 | 0.0 | 3.2 | 361.92 | 0.00 | 0.30 | 88 | 1014.1 |
| 20260903162722 | 20 | 158 | 0.0 | 6.4 | 361.92 | 0.00 | 0.30 | 89 | 1014.2 |
| 20260903161719 | 20 | 111 | 0.0 | 6.4 | 361.92 | 0.00 | 0.30 | 86 | 1014.3 |
| 20260903161218 | 20 | 0 | 0.0 | 0.0 | 361.92 | 0.00 | 0.30 | 88 | 1014.3 |
| 20260903160718 | 20 | 219 | 0.0 | 1.6 | 361.92 | 0.00 | 0.30 | 87 | 1014.3 |
| 20260903160219 | 20 | 307 | 0.0 | 3.2 | 361.92 | 0.00 | 0.30 | 89 | 1014.4 |
| 20260903155718 | 20 | 113 | 0.0 | 6.4 | 361.92 | 0.00 | 0.30 | 91 | 1014.4 |
| 20260903155218 | 20 | 63 | 0.0 | 3.2 | 361.92 | 0.00 | 0.30 | 92 | 1014.3 |
| 20260903154721 | 20 | 0 | 0.0 | 0.0 | 361.92 | 0.00 | 0.30 | 92 | 1014.3 |
| 20260903154218 | 20 | 62 | 0.0 | 3.2 | 361.92 | 0.00 | 0.30 | 92 | 1014.4 |
| 20260903153718 | 20 | 170 | 0.0 | 3.2 | 361.92 | 0.00 | 0.30 | 93 | 1014.5 |
| 20260903153224 | 19 | 0 | 0.0 | 0.0 | 361.92 | 0.00 | 0.30 | 94 | 1014.6 |
| 20260903152718 | 19 | 0 | 0.0 | 0.0 | 361.92 | 0.00 | 0.30 | 94 | 1014.6 |
| 20260903151719 | 19 | 0 | 0.0 | 0.0 | 361.92 | 0.00 | 0.30 | 95 | 1014.9 |
| 20260903151218 | 18 | 0 | 0.0 | 0.0 | 361.92 | 0.00 | 0.30 | 95 | 1015.0 |
| 20260903150719 | 18 | 0 | 0.0 | 0.0 | 361.92 | 0.00 | 0.30 | 95 | 1014.9 |
| 20260903150226 | 18 | 0 | 0.0 | 0.0 | 361.92 | 0.00 | 0.30 | 95 | 1015.0 |
| 20260903145718 | 18 | 0 | 0.0 | 0.0 | 361.92 | 0.00 | 0.30 | 95 | 1014.8 |
| 20260903145218 | 18 | 0 | 0.0 | 0.0 | 361.92 | 0.00 | 0.30 | 95 | 1014.9 |
| 20260903144719 | 18 | 0 | 0.0 | 0.0 | 361.92 | 0.00 | 0.30 | 94 | 1015.0 |